Regional Weather Roundup
Issued by NWS

Home | Current Version | Previous Version | Graphics & Text | Print | Product List | Glossary Off
Versions: 1 2 3 4 5 6 7 8 9 10 11 12 13 14 15 16 17 18 19 20 21 22 23 24 25 26 27 28 29 30 31 32 33 34 35 36 37 38 39 40 41 42 43 44 45 46 47 48 49 50

000
ASUS43 KMKX 271800
RWRWI

WISCONSIN REGIONAL WEATHER ROUNDUP
NATIONAL WEATHER SERVICE MILWAUKEE/SULLIVAN WI
100 PM CDT TUE SEP 27 2016

NOTE: "FAIR" INDICATES FEW OR NO CLOUDS BELOW 12,000 FEET WITH NO
SIGNIFICANT WEATHER AND/OR OBSTRUCTIONS TO VISIBILITY.

WIZ001-002-006>008-014>016-023>028-271900-
NORTHWEST WISCONSIN

CITY           SKY/WX    TMP DP  RH WIND       PRES   REMARKS
SUPERIOR ARPT  DRIZZLE   51  45  80 NW16G22   29.71S
ASHLAND        CLOUDY    52  48  86 W10G18    29.67S
6HR MIN TEMP:  49; 6HR MAX TEMP:  52; 6HR PCP:  0.07;

HAYWARD        LGT RAIN  50  46  86 VRB5      29.71R
6HR MIN TEMP:  49; 6HR MAX TEMP:  52; 6HR PCP:  0.02;

SIREN          LGT RAIN  50  46  86 W8        29.75S
CUMBERLAND     LGT RAIN  48  43  81 W14       29.74S
RICE LAKE      LGT RAIN  52  44  74 W12G17    29.75S
CHETEK         NOT AVBL
LADYSMITH      CLOUDY    51  47  84 W9        29.72F
EAU CLAIRE     NOT AVBL
MENOMONIE      CLOUDY    55  44  66 W12G18    29.77S
NEW RICHMOND   CLOUDY    54  42  62 W13G22    29.77F
OSCEOLA        LGT RAIN  54  43  68 W13G20    29.80S
$$

WIZ003>005-009-010-017-018-271900-
NORTH CENTRAL WISCONSIN

CITY           SKY/WX    TMP DP  RH WIND       PRES   REMARKS
MANITOWISH WTR NOT AVBL
ARBOR VITAE    CLOUDY    52  49  90 NW13G23   29.63S
WOODRUFF       CLOUDY    52  49  90 NW13G23   29.63S
RHINELANDER    LGT RAIN  50  49  96 W12       29.64S
6HR MIN TEMP:  48; 6HR MAX TEMP:  51; 6HR PCP:  0.03;

EAGLE RIVER    CLOUDY    50  47  90 W15       29.61S
LAND O LAKES   CLOUDY    50  46  87 NW9       29.62S
PHILLIPS       LGT RAIN  49  47  96 W6        29.67R
TOMAHAWK       RAIN      50  47  90 W12       29.66F
MEDFORD        CLOUDY    49  46  87 W17G24    29.69S
MERRILL        CLOUDY    50  49  95 W10       29.68S FOG
$$

WIZ029-030-035-036-043>047-271900-
CENTRAL WISCONSIN

CITY           SKY/WX    TMP DP  RH WIND       PRES   REMARKS
WAUSAU         LGT RAIN  50  45  83 W17G24    29.67S
6HR MIN TEMP:  49; 6HR MAX TEMP:  53; 6HR PCP:  0.01;

MOSINEE        NOT AVBL
MARSHFIELD     CLOUDY    53  43  68 W15G23    29.70F
6HR MIN TEMP:  51; 6HR MAX TEMP:  55; 6HR PCP: TRACE;

STEVENS POINT  CLOUDY    52  42  67 W12G20    29.70S
WAUPACA        CLOUDY    59  44  58 W13G23    29.69F
WAUTOMA        CLOUDY    56  44  64 W16G22    29.72S
6HR MIN TEMP:  50; 6HR MAX TEMP:  57;

WISC RAPIDS    CLOUDY    54  45  71 W8        29.73S
6HR MIN TEMP:  50; 6HR MAX TEMP:  57;

CAMP DOUGLAS   NOT AVBL
$$

WIZ011>013-019>022-031-037>040-048>050-271900-
NORTHEAST WISCONSIN

CITY           SKY/WX    TMP DP  RH WIND       PRES   REMARKS
ANTIGO         DRIZZLE   49  48  95 NW12      29.65S
SHAWANO        CLOUDY    59  46  63 W12G25    29.66R
OCONTO         NOT AVBL
STURGEON BAY   LGT RAIN  55  47  74 W14G22    29.62R
6HR MIN TEMP:  52; 6HR MAX TEMP:  57;

GREEN BAY      CLOUDY    59  47  64 W16G28    29.65F
6HR MIN TEMP:  52; 6HR MAX TEMP:  60;

MANITOWOC      NOT AVBL
APPLETON       DRIZZLE   55  43  62 W13G21    29.67S
CLINTONVILLE   NOT AVBL
OSHKOSH        CLOUDY    56  43  61 W12G22    29.69F
6HR MIN TEMP:  50; 6HR MAX TEMP:  57;

$$

WIZ032>034-041-042-053>061-271900-
SOUTHWEST WISCONSIN

CITY           SKY/WX    TMP DP  RH WIND       PRES   REMARKS
LA CROSSE      PTSUNNY   66  44  45 NW21      29.76F
6HR MIN TEMP:  52; 6HR MAX TEMP:  66;

SPARTA         CLOUDY    56  44  62 W12G20    29.76F
VIROQUA        PTSUNNY   60  40  47 W14G24    29.78F
BOSCOBEL       SUNNY     64  40  41 W14G24    29.78F
6HR MIN TEMP:  49; 6HR MAX TEMP:  65;

PRAIRIE DU CHI SUNNY     65  35  32 W16G28    29.79F
PLATTEVILLE    SUNNY     65  42  44 W20G30    29.80F
$$

WIZ056-057-062-063-064-067-068-271900-
SOUTH CENTRAL WISCONSIN

CITY           SKY/WX    TMP DP  RH WIND       PRES   REMARKS
REEDSBURG      NOT AVBL
BARABOO/DELLS  CLOUDY    56  40  55 W14G20    29.75F
LONE ROCK      NOT AVBL
MINERAL POINT  SUNNY     63  37  39 W20G29    29.78F
MADISON        PTSUNNY   58  41  53 NW9G20    29.75F
6HR MIN TEMP:  51; 6HR MAX TEMP:  60;

MIDDLETON      NOT AVBL
WATERTOWN      CLOUDY    57  43  58 W18       29.74S
MONROE         SUNNY     61  37  41 W22G30    29.77F
JANESVILLE     MOSUNNY   64  39  39 W18G26    29.75F
$$

WIZ051-052-058>065-066-070>072-271900-
SOUTHEAST WISCONSIN

CITY           SKY/WX    TMP DP  RH WIND       PRES   REMARKS
MILWAUKEE      CLOUDY    62  41  46 W16G25    29.74S
6HR MIN TEMP:  53; 6HR MAX TEMP:  63;

WAUKESHA       NOT AVBL
MILWAUKEE/TIMM CLOUDY    57  39  51 W15G21    29.74S
RACINE         MOSUNNY   61  40  45 W17G29    29.75S
6HR MIN TEMP:  50; 6HR MAX TEMP:  63;

BURLINGTON     SUNNY     61  39  43 W18G26    29.74F
KENOSHA        SUNNY     65  41  41 W21G30    29.73F
6HR MIN TEMP:  48; 6HR MAX TEMP:  65;

FOND DU LAC    CLOUDY    57  43  59 W21G26    29.71S
6HR MIN TEMP:  49; 6HR MAX TEMP:  57;

SHEBOYGAN      CLOUDY    58  44  60 W17G23    29.70S
6HR MIN TEMP:  52; 6HR MAX TEMP:  58;

WEST BEND      CLOUDY    55  43  62 W16       29.72S
JUNEAU         CLOUDY    55  42  62 W13G23    29.75S
$$

LSZ147-162-271900-
LAKE SUPERIOR

STATION/POSITION TIME  TEMP    WIND        PRES    WAVE
                       AIR SEA DIR/SP/G            HT/PER
                 (UTC) (F)     (DEG/KT/KT) (MB)    (FT/S)
W MID LAKE BUOY  1650   49 47  290/ 14/ 16 1001.7R   4/ 5
DEVILS ISLAND    1700   50     290/ 16/ 18 1003.9R
SAXON HARBOR     1700   52     270/  9/ 14 1004.1S
$$

LMZ867-665-643>646-271900-
LAKE MICHIGAN

STATION/POSITION TIME  TEMP    WIND        PRES    WAVE
                       AIR SEA DIR/SP/G            HT/PER
                 (UTC) (F)     (DEG/KT/KT) (MB)    (FT/S)
CHAMBERS ISLAND  1700   56     230/  3/ 12 1002.0R
N MID LAKE BUOY  1650   56 66  260/ 19/ 23 1000.7R   5/ 6
NORTHPORT PIER   1700   54     290/  9/ 17 1002.0S
SISTER BAY       1708   56     280/ 16/ 18   N/A
KEWAUNEE LAKESHO 1700   57     260/  9/ 18 1003.3F
SHEBOYGAN LAKESH 1700   56     280/ 17/ 19 1005.3R
PORT WASHINGTON  1740   59     270/ 12/ 19 1007.1S
ATWATER BUOY     1700   57 54  240/ 16/ 19 1006.8S
MILWAUKEE LAKESH 1710   58     270/ 16/ 19   N/A
S MID LAKE BUOY  1650   60 70  260/ 19/ 23 1006.5F   5/ 6
KENOSHA   LAKESH 1700   62     270/ 19/ 27 1007.1F
$$

TC  - TEMPERATURE IN CELSIUS
VSB - VISIBILITY IN STATUTE MILES
WCI - WIND CHILL INDEX
HX  - HEAT INDEX





USA.gov is the U.S. government's official web portal to all federal, state and local government web resources and services.